Regional Weather Roundup
Issued by NWS Columbia, SC

Home | Current Version | Previous Version | Text Only | Print | Product List | Glossary On
Versions: 1 2 3 4 5 6 7 8 9 10 11 12 13 14 15 16 17 18 19 20 21 22 23 24 25 26 27 28 29 30 31 32 33 34 35 36 37 38 39 40 41 42 43 44 45 46 47 48 49 50
000
ASUS42 KCAE 231210
RWRCAE
REGIONAL WEATHER ROUNDUP
NATIONAL WEATHER SERVICE COLUMBIA SC
800 AM EDT SAT AUG 23 2014

NOTE: "FAIR" INDICATES FEW OR NO CLOUDS BELOW 12,000 FEET WITH NO
SIGNIFICANT WEATHER AND/OR OBSTRUCTIONS TO VISIBILITY.

NOT ALL STATIONS ARE QUALITY CONTROLLED BY THE NATIONAL
WEATHER SERVICE. USE DATA WITH CAUTION...ESPECIALLY
DEWPOINT OBSERVATIONS.

SCZ001>056-GAZ040-063>065-077-231300-
...UPSTATE SOUTH CAROLINA...

CITY           SKY/WX    TMP DP  RH WIND       PRES   REMARKS
ANDERSON       SUNNY     73  70  90 CALM      29.99R
6HR MIN TEMP:  70; 6HR MAX TEMP:  77;

LIBERTY        FAIR      68  51  52 CALM      30.00R
6HR MIN TEMP:  64; 6HR MAX TEMP:  94;

SPARTANBURG    FAIR      73  73 100 CALM      29.98R
CLEMSON        SUNNY     75  68  78 W3        30.00R
6HR MIN TEMP:  73; 6HR MAX TEMP:  80;

GREENVILLE     SUNNY     79  68  69 N3        30.00R
6HR MIN TEMP:  74; 6HR MAX TEMP:  79;

GREENWOOD      SUNNY     75  69  81 W5        29.99R
6HR MIN TEMP:  71; 6HR MAX TEMP:  77;

GREER          SUNNY     74  70  87 CALM      29.98R
6HR MIN TEMP:  71; 6HR MAX TEMP:  75;

ROCK HILL      PTSUNNY   75  73  93 N7        29.98R
6HR MIN TEMP:  72; 6HR MAX TEMP:  77;

CHESTER        FAIR      77  72  83 CALM      29.97S
LAURENS        FAIR      72 N/A N/A N3        29.99R


...CENTRAL SOUTH CAROLINA...

CITY           SKY/WX    TMP DP  RH WIND       PRES   REMARKS
COLUMBIA APT   MOSUNNY   78  71  79 W6        29.94R
6HR MIN TEMP:  74; 6HR MAX TEMP:  82;

COLUMBIA OWENS SUNNY     79  73  82 CALM      29.95R
6HR MIN TEMP:  76; 6HR MAX TEMP:  80;

DARLINGTON     SUNNY     75  72  88 N5        29.95R
6HR MIN TEMP:  73; 6HR MAX TEMP:  79;

FLORENCE       SUNNY     79  74  84 N6        29.93R
6HR MIN TEMP:  75; 6HR MAX TEMP:  80;

MCENTIRE ANGB  MOSUNNY   77  73  87 CALM      29.94R
6HR MIN TEMP:  73; 6HR MAX TEMP:  77;

ORANGEBURG     SUNNY     77  70  79 NW3       29.93R
6HR MIN TEMP:  73; 6HR MAX TEMP:  78;

SUMTER SHAW    SUNNY     78  74  88 NE3       29.92R
6HR MIN TEMP:  75; 6HR MAX TEMP:  80;

NEWBERRY       FAIR      75  73  94 CALM      29.99R
AIKEN          FAIR      77  73  88 W5        30.00R
MANNING        FAIR      77 N/A N/A CALM      29.92R
LANCASTER      FAIR      73  73 100 CALM      29.96R


...EASTERN AND COASTAL SOUTH CAROLINA...

CITY           SKY/WX    TMP DP  RH WIND       PRES   REMARKS
MYRTLE BEACH   MOSUNNY   81  75  83 NW5       29.91S FOG
N MYRTLE BCH   PTSUNNY   80  77  90 CALM      29.91R FOG
6HR MIN TEMP:  78; 6HR MAX TEMP:  83;

CONWAY         FOG       77  77 100 CALM      29.91S VSB<1/4
HARTSVILLE     FAIR      77  68  73 CALM      29.95R
FLORENCE       SUNNY     79  74  84 N6        29.93R
6HR MIN TEMP:  75; 6HR MAX TEMP:  80;

DARLINGTON     SUNNY     75  72  88 N5        29.95R
6HR MIN TEMP:  73; 6HR MAX TEMP:  79;

CHARLESTON APT MOSUNNY   82  75  79 W3        29.92R
6HR MIN TEMP:  80; 6HR MAX TEMP:  84;

MOUNT PLEASANT FAIR      82  77  83 CALM      29.91R HAZE
WALTERBORO     SUNNY     79  79 100 CALM      29.94R
BEAUFORT       SUNNY     81  74  79 CALM      29.93R
6HR MIN TEMP:  78; 6HR MAX TEMP:  82;



...EASTERN GEORGIA...

CITY           SKY/WX    TMP DP  RH WIND       PRES   REMARKS
AUGUSTA BUSH F SUNNY     78  71  79 NW5       29.95R
6HR MIN TEMP:  71; 6HR MAX TEMP:  78;

AUGUSTA DANIEL SUNNY     80  71  74 NW7       29.97R
6HR MIN TEMP:  79; 6HR MAX TEMP:  85;

THOMSON        SUNNY     73  73 100 NW3       30.02R
6HR MIN TEMP:  72; 6HR MAX TEMP:  76;

WASHINGTON     FAIR      81  77  89 NW5       29.99R
CLAXTON        FAIR     N/A N/A N/A CALM      29.96R
SYLVANIA       SUNNY     76  74  94 CALM      29.95S
6HR MIN TEMP:  73; 6HR MAX TEMP:  77;

STATESBORO     SUNNY     77  77 100 CALM      29.95R
6HR MIN TEMP:  74; 6HR MAX TEMP:  77;

SAVANNAH       MOSUNNY   80  73  79 CALM      29.95R
6HR MIN TEMP:  78; 6HR MAX TEMP:  82;



...SOUTHERN NORTH CAROLINA...

CITY           SKY/WX    TMP DP  RH WIND       PRES   REMARKS
CHARLOTTE      PTSUNNY   75  72  90 NW3       29.98R
6HR MIN TEMP:  73; 6HR MAX TEMP:  76;

MONROE         MOSUNNY   75  72  90 CALM      29.97R
6HR MIN TEMP:  71; 6HR MAX TEMP:  75; 6HR PCP: TRACE;

WADESBORO      MOSUNNY   74  71  92 CALM      29.95R
6HR MIN TEMP:  72; 6HR MAX TEMP:  74; 6HR PCP:  0.01;

ROCKINGHAM     MOSUNNY   74  72  95 CALM      29.95R
6HR MIN TEMP:  73; 6HR MAX TEMP:  79; 6HR PCP:  0.06;

RUTHERFORDTON  SUNNY     72  69  92 CALM      30.00S
6HR MIN TEMP:  69; 6HR MAX TEMP:  74;

ASHEVILLE      MOSUNNY   69  65  86 N6        30.08R
6HR MIN TEMP:  66; 6HR MAX TEMP:  70;


$$



USA.gov is the U.S. government's official web portal to all federal, state and local government web resources and services.